Regional Weather Roundup
Issued by NWS

Home | Current Version | Previous Version | Graphics & Text | Print | Product List | Glossary On
Versions: 1 2 3 4 5 6 7 8 9 10 11 12 13 14 15 16 17 18 19 20 21 22 23 24 25 26 27 28 29 30 31 32 33 34 35 36 37 38 39 40 41 42 43 44 45 46 47 48 49 50
000
ASUS45 KSLC 170210
RWRUT

UTAH REGIONAL WEATHER ROUNDUP
NATIONAL WEATHER SERVICE SALT LAKE CITY UT
700 PM MST THU NOV 16 2017

UTZ001>011-023>025-170300-

NORTHERN UTAH

CITY           SKY/WX    TMP DP  RH WIND       PRES   REMARKS
BRIGHAM CITY   CLOUDY    52  39  60 NW15G21   29.74S
HILL AFB       LGT RAIN  52  41  65 NW6       29.75R
LOGAN          LGT RAIN  50  45  83 SE8       29.74R
OGDEN          LGT RAIN  52  42  69 N6        29.74R
SALT LAKE CITY CLOUDY    64  35  34 S14G21    29.72R
TOOELE VALLEY  CLOUDY    59  37  44 N5        29.75R
WENDOVER       LGT RAIN  53  42  66 W7        29.75S
HEBER CITY     LGT RAIN  52  36  54 SW17G25   29.77F
WEST JORDAN    CLOUDY    60  36  41 SE20G26   29.74S

$$

UTZ011>015-024>027-170300-

CENTRAL/NORTHEAST UTAH

CITY           SKY/WX    TMP DP  RH WIND       PRES   REMARKS
PROVO AIRPORT  CLOUDY    59  37  44 SW22G30   29.76R
MOAB/CANYONLAN CLOUDY    59  30  33 SW10      29.85S
DELTA          CLOUDY    57  32  38 S31G40    29.80F
PRICE          CLOUDY    45  21  38 E3        29.89F
ROOSEVELT      CLOUDY    45  21  39 W3        29.85F
VERNAL         CLOUDY    40  20  44 NW3       29.83F

$$

UTZ013>016-019>022-027-170300-

SOUTHERN UTAH

CITY           SKY/WX    TMP DP  RH WIND       PRES   REMARKS
BRYCE CANYON   CLOUDY    49  32  52 SW24G32   30.05S
CEDAR CITY     CLOUDY    57  34  41 S22G35    29.92R
MILFORD        CLOUDY    56  35  45 S15       29.89R
ST GEORGE      CLOUDY    62  32  32 S3        29.89S
HANKSVILLE     CLOUDY    63  32  31 S16G28    29.88S
BLANDING         N/A     45  19  35 N5        30.09R

$$

REGIONAL REPORTS     COLORADO/ARIZONA

CITY           SKY/WX    TMP DP  RH WIND       PRES   REMARKS
CRAIG, CO      CLOUDY    52  25  35 SW12      29.86S
GRAND JUNCTION CLOUDY    52  24  33 SE3       29.89F
RIFLE, CO      CLOUDY    55  26  32 W9        29.91S
MONTROSE, CO   CLOUDY    58  29  33 SE8       29.97F
CORTEZ, CO     CLOUDY    49  26  41 E3        30.06S
COLORADO CITY    N/A     59  34  38 SW5       30.02R
PAGE, AZ       MOCLDY    57  27  31 W3        29.95R
GRAND CANYON   CLOUDY    55  26  32 SW10      30.13R
KINGMAN, AZ    CLOUDY    67  31  26 W6        30.00R
FLAGSTAFF, AZ  CLOUDY    51  22  31 SW6       30.16S

$$

REGIONAL REPORTS    NEVADA/IDAHO/WYOMING

CITY           SKY/WX    TMP DP  RH WIND       PRES   REMARKS
LAS VEGAS, NV  CLOUDY    75  39  27 SW22G38   29.83R
ELY, NY        CLOUDY    54  32  43 S22G39    29.80F
ELKO, NV       CLOUDY    48  42  80 SW16      29.73F
POCATELLO, ID  LGT RAIN  39  37  92 W7        29.76S WCI  34
BURLEY, ID     LGT RAIN  40  38  93 S8        29.75R WCI  34
FORT BRIDGER,  CLOUDY    46  35  63 W9        29.82F
EVANSTON, WY   LGT RAIN  42  38  85 SW21      29.79F
ROCK SPRINGS,  CLOUDY    47  28  47 W3        29.79F
KEMMERER, WY   LGT RAIN  39  36  87 SW21      29.80S WCI  29

$$



USA.gov is the U.S. government's official web portal to all federal, state and local government web resources and services.